Weather WX

World > North America > United States > Texas

San Angelo, Texas Regional Weather

Lat: 31.45N, Lon: 100.45W
Wx Zone: TXZ072
Warning FLW WEATHER ALERT - (More Info. Click Here) Warning
Feedback

San Angelo, TX Regional Weather

Expires:201907170500;;762807
ASUS44 KSJT 170415
RWRSJT
WEST CENTRAL TEXAS REGIONAL WEATHER ROUNDUP
NATIONAL WEATHER SERVICE SAN ANGELO TX
1100 PM CDT TUE JUL 16 2019

NOTE: "FAIR" INDICATES FEW OR NO CLOUDS BELOW 12,000 FEET WITH NO
SIGNIFICANT WEATHER AND/OR OBSTRUCTIONS TO VISIBILITY.


TXZ049-054-064>066-071>073-076>078-098-099-113-114-127-128-139-140-
154-155-168>170-170500
...LOCATIONS ACROSS WEST CENTRAL TEXAS...
  
CITY           SKY/WX    TMP DP  RH WIND       PRES   REMARKS
SAN ANGELO     CLEAR     83  65  54 SE6       29.97R                  
ABILENE        CLEAR     84  68  58 SE9       29.98R                  
DYESS AFB      CLEAR     85  62  45 SE9       29.97R                  
JUNCTION       CLEAR     87  69  54 SE8       30.01R                  
SWEETWATER     CLEAR     85  63  47 SE8       30.02                   
BROWNWOOD      PTCLDY    82  66  57 SE6       29.99R                  
COLEMAN        CLEAR     84  63  49 S6        29.99R                  
SONORA         CLEAR     86  66  51 E6        30.04R                  
OZONA          FAIR      84  64  51 SE7       30.02R                  
BRADY          CLEAR     84  66  54 SE12      30.00R                  
$$

TEXAS PANHANDLE/OKLAHOMA PANHANDLE
  
CITY           SKY/WX    TMP DP  RH WIND       PRES   REMARKS
AMARILLO       MOCLDY    76  61  59 SE18      30.03S                  
BORGER         CLEAR     84  54  35 S15G23    29.95F                  
CANADIAN       CLEAR     79  62  54 SE7       29.92F                  
DALHART        MOCLDY    81  58  45 SE16      30.05R                  
DUMAS          CLEAR     79  58  48 SE16      30.02R                  
GUYMON         NOT AVBL                                               
HEREFORD       PTCLDY    82  55  40 SE8       30.07R                  
PAMPA          CLEAR     84  57  39 S17       29.99F                  
PERRYTON       CLEAR     81  55  40 S15       29.93                   
$$

SOUTHERN PANHANDLE/SOUTH PLAINS/ROLLING PLAINS
  
CITY           SKY/WX    TMP DP  RH WIND       PRES   REMARKS
LUBBOCK        PTCLDY    83  60  45 SE9       30.04R                  
SNYDER         CLEAR     86  63  45 SE8       30.00                   
CHILDRESS      CLEAR     87  65  47 S12       29.96R                  
SEMINOLE       CLEAR     84  54  35 S6        30.07R                  
$$

PERMIAN BASIN
  
CITY           SKY/WX    TMP DP  RH WIND       PRES   REMARKS
MIDLAND        CLEAR     88  62  41 S14       30.00R                  
ODESSA         CLEAR     87  59  38 S13       30.01R                  
WINK           CLEAR     90  61  37 SE18      29.96R                  
$$

FAR WEST/SOUTHWEST MOUNTAINS/TRANS PECOS
  
CITY           SKY/WX    TMP DP  RH WIND       PRES   REMARKS
ALPINE         CLEAR     82  60  48 SE12      30.13R                  
DRYDEN           N/A     89  63  41 E13       29.93R                  
EL PASO        MOCLDY    93  49  22 NW18G25   30.00R                  
FORT STOCKTON  CLEAR     86  63  45 SE15G23   29.98R                  
GUADALUPE PASS CLOUDY    83  47  28 NE13      30.16R                  
MARFA          CLEAR     76  60  57 CALM      30.13R                  
PECOS          CLEAR     90  64  41 E20G25    29.94R                  
$$

DALLAS/FORT WORTH METROPLEX
  
CITY           SKY/WX    TMP DP  RH WIND       PRES   REMARKS
DFW AIRPORT    MOCLDY    87  70  56 S8        29.94R                  
FTW MEACHAM    CLEAR     86  69  56 S8        29.94R                  
DAL-EXECUTIVE  CLEAR     86  71  60 S8        29.95R                  
GRAND PRAIRIE  CLEAR     87  69  55 SE5       29.97                   
ADDISON        CLEAR     87  71  58 S7        29.97R                  
MESQUITE       CLEAR     83  73  70 S5        29.96                   
LANCASTER      CLEAR     82  73  72 SE5       29.97R                  
$$

NORTH CENTRAL TEXAS
  
CITY           SKY/WX    TMP DP  RH WIND       PRES   REMARKS
SHRMAN/DENISON CLEAR     88  74  63 S12       29.97R                  
GAINESVILLE    NOT AVBL                                               
BRIDGEPORT     HAZE      83  70  63 S7        29.96  VSB<1/4          
DENTON         CLEAR     85  70  60 S8        29.95R                  
WAXAHACHIE     CLEAR     84  73  68 SE6       29.98R                  
GRANBURY       CLEAR     88  69  53 SE7       29.97R                  
$$

WESTERN NORTH TEXAS
  
CITY           SKY/WX    TMP DP  RH WIND       PRES   REMARKS
WICHITA FALLS  CLEAR     86  73  65 S13       29.93R                  
VERNON         CLEAR     87  67  51 S10       29.94                   
BRECKENRIDGE   CLEAR     85  67  54 MISG      29.95R                  
COMANCHE       CLOUDY    80  67  64 SE6       29.99R                  
$$

CENTRAL AND SOUTH CENTRAL TEXAS
  
CITY           SKY/WX    TMP DP  RH WIND       PRES   REMARKS
AUSTIN/BERGSTM CLEAR     84  74  71 S9        29.99R                  
WACO           CLEAR     87  73  62 S18       29.96R                  
HILLSBORO      CLEAR     86  74  66 SE12      29.96R                  
TEMPLE         CLEAR     85  73  67 S14       29.99R                  
KILLEEN-GRAY   CLEAR     84  69  60 SE12      29.98R                  
FORT HOOD      CLEAR     85  71  61 S16       29.95R                  
GEORGETOWN     CLEAR     85  73  67 S13       30.01R                  
LAGO VISTA     FAIR      82  71  68 SE7G17    30.02R                  
SAN MARCOS     CLEAR     82  73  74 S12       30.01R                  
NEW BRAUNFELS  CLEAR     82  72  71 SE10      29.99R                  
RANDOLPH AFB   CLEAR     80  73  78 SE10      30.00R                  
SAN ANTONIO    PTCLDY    82  72  71 SE14G23   30.00R                  
STINSON        CLEAR     84  70  62 SE15      29.97R                  
PLEASANTON     NOT AVBL                                               
LA GRANGE      CLEAR     82  79  90 S5        29.99R                  
GIDDINGS       CLEAR     85  76  75 S7        30.02R                  
$$

EAST TEXAS
  
CITY           SKY/WX    TMP DP  RH WIND       PRES   REMARKS
PARIS          CLEAR     79  74  84 SE7       29.98R                  
CLARKSVILLE    NOT AVBL                                               
TYLER          CLEAR     83  76  79 S10       29.98R                  
LONGVIEW       CLEAR     83  76  79 S12       29.98R                  
PALESTINE      PTCLDY    82  76  82 SE5       30.00S                  
NACOGDOCHES    CLEAR     81  76  84 S6        30.03R                  
$$

TEXAS HILL COUNTRY AND EDWARDS PLATEAU
  
CITY           SKY/WX    TMP DP  RH WIND       PRES   REMARKS
LLANO          CLEAR     86  70  58 SE7       30.02R                  
HORSESHOE BAY  FAIR      84  70  61 S9G16     30.00R                  
KERRVILLE      CLEAR     82  71  70 SE14      30.02R                  
FREDERICKSBRG  CLEAR     81  67  61 SE12G17   30.02R                  
ROCKSPRINGS    MOCLDY    82  68  61 SE13G18   30.07R                  
HONDO          CLEAR     84  72  67 SE16G23   29.98R                  
UVALDE         NOT AVBL                                               
DEL RIO        CLEAR     90  65  43 E10       29.89R                  
$$

SOUTHEAST TEXAS
  
CITY           SKY/WX    TMP DP  RH WIND       PRES   REMARKS
COLLEGE STN    CLEAR     83  75  77 SE13      30.00R                  
CALDWELL       CLEAR     80  74  81 S9        30.01R                  
CROCKETT       CLEAR     81  75  83 S5        30.04R                  
BRENHAM        CLEAR     82  75  81 SE5       30.02R                  
HUNTSVILLE     CLEAR     83  73  72 S6        30.01R                  
CONROE         CLEAR     80  75  84 S6        30.02R                  
HOUSTON BUSH   MOCLDY    83  75  77 S7        30.03R                  
HOUSTON HOBBY  MOCLDY    83  76  79 SE7       30.02R                  
PERLAND        FAIR      82  76  81 SE3       30.04R                  
WHARTON        CLEAR     77  74  90 CALM      30.03R                  
$$

THE UPPER TEXAS COAST
  
CITY           SKY/WX    TMP DP  RH WIND       PRES   REMARKS
ORANGE         FAIR      82  80  94 S5        30.06R                  
PORT ARTHUR    FAIR     
85b
 80  76  87 MISG      30.04R                  
GALVESTON      FAIR      85  78  80 SE10      30.04R                  
ANGLETON       FAIR      81  76  84 S6        30.02R                  
BAY CITY       FAIR      82  79  92 SE3       30.02R                  
$$

TEXAS COASTAL BEND, RIO GRANDE PLAINS DEEP SOUTH TEXAS
  
CITY           SKY/WX    TMP DP  RH WIND       PRES   REMARKS
VICTORIA       CLEAR     80  75  84 SE9       30.01R                  
BEEVILLE       NOT AVBL                                               
ROCKPORT       PTCLDY    83  77  82 SE12      29.99R                  
PORT ARANSAS   CLEAR     83  79  86 SE8       30.01R                  
PORT LAVACA    CLEAR     82  78  90 SE3       30.01R                  
CORPUS CHRISTI PTCLDY    82  77  84 SE9       29.99R                  
KINGSVILLE NAS PTCLDY    82  78  88 SE8       29.98                   
COTULLA        CLEAR     86  74  67 SE18G28   29.94R                  
LAREDO         CLEAR     88  71  57 SE17      29.93R                  
BROWNSVILLE    FAIR      85  80  85 SE13      29.96R                  
PORT ISABEL    FAIR      83  77  82 SE12      29.97R                  
HEBBRONVILLE   CLEAR     83  71  65 CALM      29.99R                  
MCALLEN        PTCLDY    83  75  77 SE14      29.96R                  
WESLACO        NOT AVBL                                               
FALFURRIAS     CLEAR     85  76  76 SE9       29.97R                  
EDINBURG       CLEAR     84  75  74 SE9       29.97R                  
$$
  

SKY/WX - Weather  TMP - Temperature  DP - Dew Point  RH - Relative Humidity
WIND - Wind Direction/Speed PRES - Barometric Pressure VSB - Visibility
WCI - Wind Chill Index E13G22 Wind - East Wind 13 mph/Gusts of 22 mph